Location: Little Maitland River
(43.8022°N, 81.1549°W)
Time: 23:32:42
(UTC+00:00)

Cosmos 2263 Rocket - Pass Details

Date: 09 December 2025
Orbit: 821 x 849 km, 71.0° (Epoch: 19 January)

Event Time Altitude Azimuth Distance (km) Brightness Sun altitude
Rises 00:16:49 0° 334° (NNW) 3,406 5.6 -26.1°
Reaches altitude 10° 00:19:16 10° 335° (NNW) 2,471 4.8 -26.6°
Maximum altitude 00:24:57 90° 42° (NE) 853 2.1 -27.6°
Enters shadow 00:25:15 81° 155° (SSE) 861 2.1 -27.7°
